Location: Auttagershofen
(48.1940°N, 10.0237°E)
Time: 02:18:36
(UTC+00:00)

Tiangong - Visible Passes

Search period start: 09 March 2026 00:00
Search period end: 19 March 2026 00:00
Orbit: 381 x 391 km, 41.5° (Epoch: 8 March)

Date Brightness Start Highest point End Pass type
(mag) Time Alt. Az. Time Alt. Az. Time Alt. Az.
13 Mar 0.5 04:22:24 10° SSW 04:24:08 14° SSE 04:25:50 10° SE visible
14 Mar -0.1 04:58:30 10° SW 05:01:01 21° S 05:03:32 10° ESE visible
15 Mar -0.1 04:00:46 16° S 04:01:38 18° SSE 04:03:54 10° ESE visible
16 Mar 1.0 03:03:55 10° SE 03:03:55 10° SE 03:03:59 10° SE visible
16 Mar -0.4 04:36:08 12° SW 04:38:28 24° S 04:41:06 10° ESE visible
17 Mar -0.3 03:39:12 21° SSE 03:39:12 21° SSE 03:41:30 10° ESE visible
18 Mar -0.6 04:14:26 18° SW 04:15:44 24° S 04:18:22 10° SE visible
